Wind_Speed
6 8 11 2 4 5 13 12 5 13 26 13 8 8 17 18 14 12 12 15 15 9 7 8 7 5 7 7 4 4 3 4
11 8 16 19 16 8 5 11 12 11 17 14 5 16 20 18 18 14 12 11 11 12 13 10 7 4 3 4 4 5 5 6
10 6 10 3 11 9 2 13 11 9 21 20 24 23 23 24 27 22 17 16 16 15 14 12 12 10 7 6 6 6 7 7
11 10 6 12 14 14 15 10 16 17 16 16 17 26 26 27 25 24 24 25 23 23 21 19 18 17 16 15 14 12 10 11
7 19 18 11 16 20 11 9 21 11 24 19 23 27 31 33 27 26 26 26 27 26 26 24 24 23 23 23 22 20 17 15
16 27 23 22 15 12 14 12 13 20 23 31 32 27 27 30 29 28 28 26 27 28 28 29 29 28 27 29 28 27 26 23
19 23 17 35 25 13 10 14 21 15 33 32 28 23 33 31 31 32 33 31 30 30 32 32 33 34 33 32 34 32 33 31
26 23 20 18 19 17 28 22 29 21 30 43 42 37 37 36 39 34 32 33 34 36 37 35 37 38 39 39 39 38 37 36
26 25 23 23 22 25 28 22 34 34 41 41 43 38 35 38 41 36 32 33 38 42 43 43 43 43 44 44 45 46 45 42
24 24 21 26 29 30 27 32 33 30 38 36 38 37 37 41 38 39 36 39 42 44 46 47 48 48 49 49 50 51 52 51
25 23 18 29 34 28 26 33 35 30 35 35 33 31 41 40 40 39 40 41 44 48 49 49 47 46 46 47 49 51 54 58
23 23 18 38 35 24 23 34 33 30 30 32 34 36 39 40 40 40 43 45 46 47 45 42 37 33 33 36 39 41 46 54
23 24 29 39 30 26 33 37 31 32 33 33 34 36 37 37 38 42 44 47 46 44 38 33 36 40 39 40 44 44 42 41
24 23 33 37 29 27 28 32 33 33 34 35 35 36 37 39 40 42 43 44 43 41 39 36 38 39 38 37 39 41 44 46
29 34 31 31 31 29 31 32 32 34 35 35 35 36 37 40 42 44 44 43 42 43 44 43 44 45 43 38 40 37 41 43
28 35 35 29 31 32 31 32 33 34 34 34 35 36 38 41 43 44 44 42 39 39 41 47 47 46 43 41 40 42 43 46
31 39 32 32 30 32 33 32 33 32 33 34 35 38 40 41 42 42 40 33 35 40 43 43 45 43 39 39 42 42 43 44
34 32 30 33 32 30 32 33 32 32 32 34 37 39 40 40 40 39 34 35 40 40 44 42 41 37 38 35 36 37 36 39
33 30 31 34 35 31 32 31 31 32 33 35 37 39 39 39 38 34 35 37 38 40 41 37 32 27 25 29 32 35 38 39
Wind_Direction
239 188 191 114 210 262 284 312 243 281 286 283 328 299 332 337 328 338 342 343 356 358 2 15 23 19 17 17 344 282 278 264
235 222 180 179 206 150 254 212 249 263 255 177 322 310 321 329 326 320 315 316 320 328 336 338 340 359 343 334 332 349 297 281
224 216 178 195 197 162 212 304 319 271 304 289 296 309 316 318 315 315 314 306 306 310 305 302 304 301 298 296 303 302 292 285
205 241 207 241 206 219 251 253 239 249 265 228 298 299 300 301 303 299 304 300 301 299 297 293 289 287 289 284 287 279 279 288
232 268 188 234 235 220 256 247 311 306 280 283 297 289 292 294 297 290 286 287 289 288 288 286 284 282 279 282 275 280 275 274
254 270 215 190 181 231 241 242 262 285 290 289 288 279 278 290 295 294 289 284 280 278 277 279 279 276 271 272 273 273 272 271
255 256 268 215 182 198 229 248 243 249 288 279 267 276 285 294 289 284 285 285 283 282 281 279 276 275 273 267 269 268 268 268
235 237 270 279 262 256 241 254 252 255 262 267 270 280 290 293 286 284 284 287 290 290 287 282 280 278 277 274 271 267 261 261
252 248 246 253 253 242 256 255 259 258 259 269 278 283 281 282 281 283 287 292 291 288 287 288 286 281 275 272 270 268 264 260
252 247 247 245 244 250 254 257 264 260 265 268 274 281 283 277 282 290 295 290 288 289 288 286 283 279 276 272 267 263 262 259
245 247 246 255 247 247 259 262 263 265 269 274 276 277 277 283 289 291 291 291 291 291 291 288 285 282 277 275 271 266 260 256
241 242 225 247 258 254 255 266 267 275 276 277 278 279 281 288 288 290 292 294 295 294 292 291 287 281 280 282 281 277 272 261
241 241 245 252 255 262 265 269 280 276 278 279 280 283 284 284 286 291 295 297 296 295 295 289 290 287 283 281 282 278 268 266
243 232 247 257 266 264 271 270 276 281 283 284 286 285 286 289 293 295 296 295 292 289 286 290 292 291 285 276 277 273 266 266
248 255 264 266 269 269 268 274 280 280 283 284 285 287 290 293 295 296 298 295 290 286 288 290 291 289 287 278 269 271 269 270
249 255 257 266 264 270 276 275 279 281 282 284 286 289 292 295 296 298 299 298 294 290 287 290 291 288 284 279 271 268 264 261
255 258 263 264 268 271 276 277 278 280 283 284 288 292 295 296 297 301 301 294 292 298 296 298 289 287 285 278 271 267 265 264
261 265 266 267 267 269 274 278 279 282 283 287 289 293 295 297 300 303 294 291 298 300 298 304 291 289 283 277 271 269 266 269
258 262 264 270 272 276 275 277 281 283 286 289 293 296 298 299 303 300 295 301 297 306 303 305 296 293 279 277 277 273 269 267
Height
5892 5894 5897 5900 5902 5904 5904 5900 5900 5900 5891 5894 5894 5896 5897 5897 5896 5895 5894 5893 5891 5892 5892 5891 5889 5889 5889 5890 5889 5889 5889 5889
5893 5894 5894 5894 5898 5903 5908 5905 5899 5896 5891 5882 5891 5895 5895 5895 5896 5895 5894 5894 5893 5892 5890 5890 5890 5890 5890 5889 5888 5888 5888 5888
5892 5893 5896 5899 5900 5901 5904 5899 5900 5889 5890 5890 5890 5891 5890 5891 5892 5893 5892 5892 5892 5891 5890 5890 5889 5889 5888 5887 5887 5887 5887 5887
5892 5894 5895 5897 5898 5900 5901 5902 5899 5895 5887 5879 5887 5886 5888 5889 5889 5890 5890 5889 5889 5889 5889 5887 5886 5886 5885 5886 5885 5885 5885 5885
5890 5884 5889 5893 5896 5897 5899 5900 5892 5891 5885 5878 5883 5882 5883 5884 5886 5886 5886 5885 5884 5884 5883 5884 5883 5883 5881 5881 5882 5882 5882 5882
5884 5875 5881 5883 5886 5895 5895 5897 5897 5889 5881 5877 5878 5879 5879 5880 5880 5881 5880 5879 5878 5878 5877 5877 5876 5877 5877 5874 5875 5876 5877 5878
5875 5876 5875 5875 5879 5879 5888 5890 5890 5891 5875 5874 5875 5867 5875 5876 5876 5875 5872 5872 5872 5871 5870 5870 5869 5868 5868 5869 5867 5868 5869 5870
5873 5873 5872 5873 5877 5880 5881 5881 5881 5884 5871 5864 5870 5872 5871 5869 5865 5866 5866 5865 5864 5862 5860 5861 5859 5859 5858 5858 5858 5858 5859 5862
5866 5868 5869 5871 5871 5873 5873 5874 5871 5873 5867 5866 5862 5866 5867 5863 5857 5858 5859 5859 5855 5851 5849 5849 5848 5846 5845 5845 5845 5845 5846 5849
5860 5860 5862 5860 5864 5865 5867 5864 5864 5865 5858 5861 5859 5859 5857 5852 5853 5850 5850 5847 5844 5842 5840 5837 5836 5834 5832 5830 5830 5830 5831 5833
5853 5855 5858 5854 5853 5858 5861 5855 5852 5857 5854 5853 5853 5854 5844 5844 5843 5841 5839 5837 5833 5829 5825 5823 5821 5819 5817 5815 5813 5814 5815 5817
5848 5848 5851 5839 5844 5851 5852 5845 5846 5848 5847 5845 5844 5843 5839 5836 5833 5831 5827 5824 5820 5816 5813 5810 5808 5806 5805 5803 5800 5798 5796 5800
5840 5841 5837 5831 5840 5842 5840 5838 5839 5839 5838 5836 5835 5833 5830 5827 5824 5820 5815 5811 5807 5803 5801 5800 5798 5796 5794 5791 5789 5785 5782 5783
5831 5833 5828 5827 5832 5835 5834 5831 5830 5829 5827 5825 5824 5822 5818 5816 5813 5809 5805 5800 5796 5793 5791 5790 5787 5784 5782 5779 5776 5773 5770 5770
5824 5821 5822 5822 5823 5825 5824 5824 5822 5820 5818 5816 5814 5811 5808 5805 5801 5797 5793 5789 5785 5782 5779 5776 5774 5771 5769 5766 5763 5761 5759 5758
5816 5812 5813 5817 5815 5816 5816 5814 5813 5811 5809 5807 5804 5802 5798 5795 5790 5786 5781 5777 5773 5770 5767 5764 5760 5756 5753 5752 5750 5747 5746 5745
5807 5802 5808 5807 5809 5807 5806 5805 5804 5803 5800 5797 5795 5792 5788 5784 5780 5775 5771 5767 5763 5759 5755 5750 5745 5742 5740 5738 5736 5734 5733 5731
5797 5799 5799 5798 5798 5800 5799 5797 5795 5793 5791 5789 5786 5783 5778 5774 5769 5765 5761 5758 5753 5748 5741 5736 5731 5728 5726 5723 5723 5721 5720 5720
5789 5791 5791 5789 5787 5791 5788 5787 5785 5783 5782 5780 5776 5772 5768 5764 5759 5756 5752 5748 5742 5736 5730 5723 5719 5715 5713 5712 5710 5710 5709 5708